[[{"header":{"parameterUnit":"m.s-1","parameterCategory":2,"la1":30.2991,"la2":30.254,"lo1":-89.0895,"lo2":-89.0444,"dy":0.0017,"dx":0.0017,"nx":28,"ny":28,"refTime":"2023-09-14T21:00:00:Z","depth":"0","parameterNumber":2,"parameterNumberName":"U-component_of_CURRENTS"},"data":[0,0,0,0,0,0,0,0,0,0,0,0,0,0,0,0,0,0,0,0,0,0,0,0,0,0,0,0,0,0,0,0,0,0,0,0,0,0,0,0,0,0,0,0,0,0,0,0,0,0,0,0,0,0,0,0,0,0,-0.242,-0.242,0,-0.2451,-0.2451,-0.2451,-0.2438,-0.2438,-0.2437,-0.2436,-0.2412,-0.2412,-0.2412,0,0,0,0,0,0,0,0,0,0,0,0,0,-0.234,-0.2341,-0.242,-0.242,-0.2421,-0.245,-0.2451,-0.2451,-0.2438,-0.2438,-0.2437,-0.2436,-0.2412,-0.2412,-0.2412,0,0,0,0,0,0,0,0,0,0,0,0,0,-0.2372,-0.2342,-0.242,-0.2419,-0.2419,-0.245,-0.2451,-0.2451,-0.2438,-0.2438,-0.2437,-0.2436,-0.2412,-0.2412,-0.2412,-0.243,0,0,-0.2411,-0.2411,0,0,0,0,0,0,0,0,-0.237,-0.2375,-0.2419,-0.2419,-0.242,-0.2441,-0.2414,-0.2442,-0.2439,-0.243,-0.2436,-0.2435,-0.2418,-0.2417,-0.2424,-0.2429,-0.2428,-0.2411,-0.2411,-0.2411,-0.2411,0,0,0,0,0,0,0,-0.2368,-0.2373,-0.2431,-0.2419,-0.242,-0.2414,-0.2417,-0.2419,-0.2427,-0.2431,-0.243,-0.2436,-0.2417,-0.2424,-0.2423,-0.2427,-0.2411,-0.2411,-0.2411,-0.2411,-0.2524,-0.2527,0,0,0,0,0,0,-0.2369,-0.2372,-0.243,-0.2432,-0.2393,-0.2416,-0.242,-0.2434,-0.2428,-0.2427,-0.2436,-0.2435,-0.2425,-0.2423,-0.2422,-0.2499,-0.2411,-0.2411,-0.2411,-0.2521,-0.2525,-0.2528,0,0,0,0,0,0,-0.2367,-0.2374,-0.2429,-0.2402,-0.2409,-0.2418,-0.2434,-0.2435,-0.2441,-0.2433,-0.2431,-0.2442,-0.2424,-0.2422,-0.2449,-0.2495,-0.2411,-0.2411,-0.2518,-0.2522,-0.2527,-0.2616,0,0,0,0,0,0,-0.2365,-0.2373,-0.2384,-0.2403,-0.2411,-0.2451,-0.2435,-0.2436,-0.2447,-0.2445,-0.2437,-0.2434,-0.2423,-0.2449,-0.2449,-0.2494,-0.2411,-0.2514,-0.252,-0.2525,-0.2609,-0.2623,-0.2635,0,0,0,0,0,-0.2362,-0.2383,-0.2384,-0.2391,-0.2425,-0.2452,-0.2455,-0.2457,-0.2448,-0.2457,-0.2467,-0.2434,-0.2486,-0.2451,-0.245,-0.2496,-0.2511,-0.2518,-0.2525,-0.2604,-0.2621,-0.2635,0,0,0,0,0,0,-0.2352,-0.2384,-0.2386,-0.2415,-0.2433,-0.245,-0.246,-0.2462,-0.2477,-0.2474,-0.2462,-0.2462,-0.2504,-0.2493,-0.2456,-0.2551,-0.2497,-0.2504,-0.2558,-0.2574,-0.2586,-0.2587,-0.2411,0,0,0,0,0,-0.2356,-0.2379,-0.2404,-0.2426,-0.2436,-0.2448,-0.2458,-0.2462,-0.2478,-0.2483,-0.2482,-0.2498,-0.2535,-0.2545,-0.256,-0.2604,-0.2604,-0.2639,-0.2652,-0.2663,-0.2666,-0.2715,-0.2732,-0.2551,-0.2551,-0.2551,0,0,-0.2358,-0.2378,-0.2391,-0.2425,-0.2436,-0.2471,-0.2451,-0.2472,-0.2512,-0.2478,-0.2525,-0.2533,-0.2556,-0.2613,-0.2632,-0.2607,-0.2721,-0.2672,-0.268,-0.2678,-0.2724,-0.2741,-0.2757,-0.2556,-0.2555,-0.2554,0,0,-0.2374,-0.2391,-0.2415,-0.2437,-0.2463,-0.2482,-0.249,-0.2513,-0.2533,-0.2576,-0.2583,-0.2628,-0.265,-0.27,-0.2725,-0.2821,-0.2784,-0.2819,-0.2886,-0.2934,-0.2949,-0.2962,-0.3005,-0.302,-0.283,-0.2831,-0.2831,0,-0.2376,-0.2416,-0.2424,-0.2456,-0.2493,-0.2491,-0.2539,-0.2564,-0.2595,-0.2641,-0.2599,-0.2703,-0.2705,-0.2825,-0.2852,-0.2851,-0.2856,-0.282,-0.2949,-0.2962,-0.2973,-0.3014,-0.303,-0.2836,-0.2835,-0.2835,-0.2834,0,-0.2407,-0.2448,-0.2465,-0.2516,-0.2554,-0.259,-0.2635,-0.2674,-0.2692,-0.2727,-0.2822,-0.2836,-0.2901,-0.2919,-0.2904,-0.3012,-0.2983,-0.2953,-0.2902,-0.2996,-0.3034,-0.3049,-0.2843,-0.2841,-0.284,-0.2839,0,0,-0.239,-0.2476,-0.248,-0.2541,-0.2596,-0.2642,-0.2719,-0.2813,-0.2888,-0.2907,-0.3007,-0.3069,-0.3063,-0.3092,-0.3095,-0.3129,-0.3212,-0.3065,-0.3065,-0.3095,-0.3309,-0.2998,-0.2984,-0.3188,-0.3191,-0.3193,-0.3309,0,-0.2417,-0.2508,-0.2542,-0.2649,-0.2714,-0.2766,-0.2849,-0.2932,-0.2986,-0.307,-0.3116,-0.3185,-0.3136,-0.316,-0.3197,-0.3196,-0.3252,-0.3183,-0.3224,-0.3226,-0.2926,-0.2991,-0.2772,-0.2827,-0.3323,-0.3325,-0.3327,0,-0.2429,-0.2506,-0.261,-0.2767,-0.2799,-0.2858,-0.3018,-0.309,-0.3205,-0.3242,-0.3314,-0.3321,-0.3396,-0.3315,-0.3393,-0.334,-0.3337,-0.3332,-0.3336,-0.3016,-0.294,-0.2812,-0.2836,-0.283,-0.335,-0.3348,-0.3347,0,-0.2427,-0.256,-0.266,-0.2703,-0.2857,-0.2931,-0.3015,-0.3143,-0.3211,-0.3335,-0.3354,-0.3467,-0.346,-0.3508,-0.344,-0.3435,-0.3479,-0.3488,-0.3236,-0.3217,-0.302,-0.2973,-0.3022,-0.3568,-0.3568,-0.3568,-0.3568,0,-0.2448,-0.253,-0.2668,-0.2722,-0.286,-0.2961,-0.3095,-0.3187,-0.3295,-0.3312,-0.3417,-0.3388,-0.3487,-0.3488,-0.3494,-0.3356,-0.3531,-0.3247,-0.3216,-0.3042,-0.2998,-0.2969,-0.3014,-0.3572,-0.3571,-0.357,-0.357,0,-0.2416,-0.2501,-0.2626,-0.2798,-0.2852,-0.2945,-0.3096,-0.3163,-0.327,-0.3281,-0.3296,-0.3347,-0.3274,-0.3355,-0.3396,-0.3345,-0.3225,-0.3241,-0.3004,-0.2936,-0.2621,-0.2678,-0.2652,-0.2588,-0.3011,-0.3004,-0.2998,0,-0.2404,-0.2459,-0.2641,-0.2688,-0.2756,-0.2896,-0.2955,-0.312,-0.314,-0.3166,-0.3116,-0.3095,-0.2939,-0.2916,-0.2848,-0.2838,-0.2931,-0.2672,-0.2604,-0.2553,-0.2602,-0.2656,-0.2614,-0.2441,-0.2431,-0.2423,-0.2416,0,-0.2363,-0.2416,-0.25,-0.2604,-0.2676,-0.277,-0.2846,-0.2852,-0.2934,-0.2896,-0.2727,-0.2617,-0.2494,-0.2296,-0.2284,-0.2268,-0.2541,-0.2487,-0.2544,-0.2216,-0.2182,-0.2119,-0.2441,-0.2342,-0.2349,-0.2355,-0.2359,-0.2362,-0.2284,-0.2318,-0.2395,-0.2485,-0.2555,-0.2548,-0.252,-0.2529,-0.2466,-0.2304,-0.2301,-0.2079,-0.1972,-0.1821,-0.1797,-0.1712,-0.1884,-0.1737,-0.1841,-0.1926,-0.174,-0.1833,-0.1593,-0.1596,-0.1599,-0.1601,-0.1603,0,-0.2159,-0.2194,-0.226,-0.2316,-0.2293,-0.2395,-0.2357,-0.2241,-0.2012,-0.1931,-0.1737,-0.1556,-0.134,-0.1353,-0.124,-0.1177,-0.1237,-0.1225,-0.1364,-0.1377,-0.1554,-0.1393,-0.096,-0.096,-0.096,-0.096,-0.0961,-0.0961,-0.2082,-0.2078,-0.2117,-0.2028,-0.2034,-0.1887,-0.1797,-0.164,-0.1548,-0.1283,-0.1195,-0.1181,-0.1179,-0.1184,-0.107,-0.1012,-0.1113,-0.0978,-0.1146,-0.1372,-0.1433,-0.1492,-0.1352,-0.0918,-0.0918,-0.0881,-0.0881,-0.0881]},{"header":{"parameterUnit":"m.s-1","parameterCategory":2,"la1":30.2991,"la2":30.254,"lo1":-89.0895,"lo2":-89.0444,"dy":0.0017,"dx":0.0017,"nx":28,"ny":28,"refTime":"2023-09-14T21:00:00:Z","depth":"0","parameterNumber":3,"parameterNumberName":"V-component_of_CURRENTS"},"data":[0,0,0,0,0,0,0,0,0,0,0,0,0,0,0,0,0,0,0,0,0,0,0,0,0,0,0,0,0,0,0,0,0,0,0,0,0,0,0,0,0,0,0,0,0,0,0,0,0,0,0,0,0,0,0,0,0,0,0.0011,0.0012,0,0.0109,0.011,0.0111,0.0166,0.0166,0.0166,0.0167,0.0236,0.0238,0.0239,0,0,0,0,0,0,0,0,0,0,0,0,0,-0.0056,-0.0056,0.0011,0.0012,0.0014,0.0109,0.0111,0.0112,0.0166,0.0166,0.0166,0.0167,0.0236,0.0237,0.0239,0,0,0,0,0,0,0,0,0,0,0,0,0,-0.0001,-0.0055,0.0011,0.0053,0.0058,0.0109,0.0111,0.0112,0.0166,0.0166,0.0167,0.0167,0.0235,0.0237,0.024,0.0246,0,0,0.0247,0.0248,0,0,0,0,0,0,0,0,-0.0004,0.0002,0.0046,0.005,0.0056,0.0127,0.0113,0.0156,0.0166,0.0123,0.0167,0.0167,0.0197,0.0203,0.0219,0.0249,0.0252,0.0247,0.0249,0.025,0.025,0,0,0,0,0,0,0,-0.0008,-0.0002,0.0049,0.0047,0.0053,0.0093,0.01,0.0121,0.0155,0.0127,0.0132,0.0145,0.02,0.0217,0.0221,0.0253,0.0247,0.0249,0.0251,0.0252,0.0314,0.0314,0,0,0,0,0,0,-0.0022,-0.0006,0.0046,0.0052,0.0028,0.0093,0.0102,0.0103,0.0156,0.0165,0.0144,0.0147,0.0212,0.0218,0.0224,0.023,0.025,0.0252,0.0253,0.0314,0.0314,0.0314,0,0,0,0,0,0,-0.0024,-0.0019,0.0042,0.0027,0.0038,0.0094,0.0095,0.0104,0.0122,0.0169,0.0178,0.0151,0.0213,0.022,0.0242,0.0233,0.0253,0.0255,0.0313,0.0314,0.0314,0.0245,0,0,0,0,0,0,-0.0026,-0.002,-0.0026,0.0026,0.0038,0.0063,0.0095,0.0106,0.013,0.0134,0.0178,0.0185,0.0214,0.0238,0.0244,0.0237,0.0257,0.0313,0.0314,0.0314,0.0247,0.0243,0.024,0,0,0,0,0,-0.0029,-0.0039,-0.0027,-0.002,0.0028,0.0063,0.0072,0.0114,0.0129,0.0131,0.0164,0.0184,0.0245,0.024,0.0247,0.024,0.0313,0.0313,0.0314,0.0249,0.0244,0.024,0,0,0,0,0,0,-0.0067,-0.0032,-0.0019,-0.0016,0.0017,0.0073,0.0081,0.0108,0.0137,0.0139,0.0183,0.0192,0.0208,0.0237,0.0229,0.0263,0.0284,0.0286,0.0232,0.0228,0.0224,0.0208,0.0259,0,0,0,0,0,-0.008,-0.0083,-0.0037,-0.0037,-0.0023,0.0026,0.0045,0.0072,0.0107,0.0121,0.0154,0.0189,0.0216,0.0231,0.0259,0.0272,0.0293,0.0276,0.0273,0.0269,0.0262,0.0289,0.0287,0.0316,0.0316,0.0316,0,0,-0.0093,-0.0075,-0.0075,-0.0046,-0.0017,-0.0012,0.0038,0.006,0.0064,0.0122,0.0133,0.0173,0.0217,0.0234,0.0245,0.0256,0.0271,0.027,0.0266,0.0261,0.029,0.0287,0.0284,0.0316,0.0316,0.0316,0,0,-0.0122,-0.0108,-0.0118,-0.01,-0.0065,-0.0039,-0.0038,0.0012,0.0034,0.0054,0.0097,0.0136,0.0172,0.021,0.0231,0.0225,0.0248,0.0232,0.0199,0.0225,0.0222,0.022,0.0231,0.023,0.0232,0.0232,0.0232,0,-0.014,-0.0153,-0.0114,-0.012,-0.0118,-0.006,-0.0076,-0.0043,0.0007,0.0022,0.0046,0.012,0.0163,0.0189,0.0193,0.0215,0.0224,0.0207,0.0218,0.0216,0.0215,0.0227,0.0227,0.0228,0.0229,0.0229,0.0229,0,-0.0174,-0.0188,-0.0193,-0.0192,-0.0183,-0.0186,-0.0144,-0.013,-0.0098,-0.0055,-0.0016,0.0053,0.0098,0.0122,0.0156,0.0173,0.0178,0.0205,0.0222,0.0208,0.0221,0.0223,0.0224,0.0225,0.0226,0.0227,0,0,-0.0213,-0.0219,-0.0224,-0.0251,-0.0228,-0.0232,-0.0227,-0.0206,-0.0205,-0.0135,-0.0125,-0.0045,0.0009,0.0039,0.0094,0.0128,0.0137,0.0156,0.0159,0.0153,0.0173,0.025,0.0259,0.0156,0.0156,0.0156,0.0181,0,-0.0258,-0.0311,-0.029,-0.0346,-0.0377,-0.0336,-0.0339,-0.0309,-0.0266,-0.0237,-0.0141,-0.0101,-0.0028,-0.0003,0.0041,0.0103,0.0139,0.0127,0.02,0.0202,0.0262,0.0264,0.0278,0.0308,0.0183,0.0183,0.0183,0,-0.0301,-0.0342,-0.0406,-0.045,-0.0456,-0.0468,-0.0482,-0.047,-0.04,-0.0359,-0.0288,-0.0212,-0.0143,-0.0074,0.0025,0.0006,0.0086,0.0145,0.0147,0.0245,0.0283,0.0307,0.0316,0.0451,0.0186,0.0185,0.0185,0,-0.0376,-0.0425,-0.0493,-0.0506,-0.0532,-0.0547,-0.0548,-0.0504,-0.0495,-0.0425,-0.0402,-0.031,-0.0261,-0.0161,-0.0006,-0.0009,0.0106,0.0118,0.0265,0.027,0.0312,0.0322,0.0453,0.02,0.02,0.02,0.02,0,-0.0442,-0.0496,-0.0534,-0.0573,-0.0653,-0.0625,-0.0663,-0.0643,-0.0592,-0.0575,-0.0461,-0.0423,-0.028,-0.0178,-0.0051,0.0117,0.0077,0.0258,0.0287,0.029,0.0297,0.0444,0.0492,0.0201,0.0201,0.0201,0.02,0,-0.0511,-0.0528,-0.0621,-0.0674,-0.0689,-0.0744,-0.0745,-0.0752,-0.0693,-0.0671,-0.0647,-0.0526,-0.0392,-0.0223,-0.0061,0.0066,0.0303,0.0301,0.0294,0.0324,0.0572,0.0614,0.075,0.0831,0.0423,0.0426,0.0427,0,-0.0549,-0.0604,-0.0709,-0.0759,-0.0782,-0.0834,-0.085,-0.0811,-0.0799,-0.0719,-0.0706,-0.0575,-0.046,-0.0189,0.0053,0.0282,0.0401,0.0444,0.0464,0.0596,0.0664,0.0682,0.074,0.0477,0.0479,0.0481,0.0482,0,-0.064,-0.0675,-0.0756,-0.0857,-0.0904,-0.0949,-0.0957,-0.0964,-0.0893,-0.0856,-0.0769,-0.0677,-0.0399,-0.0125,0.0198,0.0341,0.0532,0.0488,0.0623,0.0723,0.075,0.0838,0.0439,0.0497,0.0496,0.0495,0.0494,0.0493,-0.0705,-0.0788,-0.0874,-0.0963,-0.101,-0.1022,-0.1034,-0.1013,-0.0986,-0.0892,-0.0814,-0.0636,-0.0249,0.0204,0.0376,0.0733,0.0687,0.0826,0.0863,0.0867,0.0968,0.061,0.0715,0.0715,0.0715,0.0715,0.0715,0,-0.0791,-0.0861,-0.0958,-0.1042,-0.1068,-0.107,-0.1071,-0.1041,-0.0993,-0.0889,-0.0781,-0.0348,0.0039,0.0414,0.0906,0.1095,0.1118,0.1178,0.1192,0.1234,0.0914,0.0945,0.1107,0.1107,0.1107,0.1107,0.1107,0.1107,-0.0838,-0.095,-0.0996,-0.106,-0.1084,-0.1079,-0.1066,-0.1026,-0.094,-0.0711,-0.0474,-0.0293,0.0253,0.0954,0.1382,0.1417,0.1568,0.154,0.1639,0.1408,0.1377,0.1347,0.139,0.1644,0.1644,0.1934,0.1937,0.1939]}],[{"header":{"parameterUnit":"m.s-1","parameterCategory":2,"la1":30.2991,"la2":30.254,"lo1":-89.0895,"lo2":-89.0444,"dy":0.0017,"dx":0.0017,"nx":28,"ny":28,"refTime":"2023-09-14T21:00:00:Z","depth":"2","parameterNumber":2,"parameterNumberName":"U-component_of_CURRENTS"},"data":[0,0,0,0,0,0,0,0,0,0,0,0,0,0,0,0,0,0,0,0,0,0,0,0,0,0,0,0,0,0,0,0,0,0,0,0,0,0,0,0,0,0,0,0,0,0,0,0,0,0,0,0,0,0,0,0,0,0,-0.1758,-0.1758,0,-0.1722,-0.1721,-0.1721,-0.1718,-0.1719,-0.172,-0.1721,-0.1664,-0.1662,-0.166,0,0,0,0,0,0,0,0,0,0,0,0,0,-0.1812,-0.1811,-0.1758,-0.1758,-0.1758,-0.1722,-0.1721,-0.172,-0.1718,-0.1719,-0.172,-0.1721,-0.1665,-0.1662,-0.166,0,0,0,0,0,0,0,0,0,0,0,0,0,-0.178,-0.181,-0.1758,-0.1755,-0.1755,-0.1722,-0.1721,-0.172,-0.1718,-0.1719,-0.172,-0.1721,-0.1666,-0.1663,-0.1659,-0.1616,0,0,-0.1649,-0.1648,0,0,0,0,0,0,0,0,-0.1782,-0.1777,-0.1756,-0.1756,-0.1755,-0.1729,-0.172,-0.1686,-0.1718,-0.1728,-0.1721,-0.1722,-0.1686,-0.1681,-0.1666,-0.1613,-0.1611,-0.1649,-0.1647,-0.1646,-0.1645,0,0,0,0,0,0,0,-0.1784,-0.1779,-0.174,-0.1756,-0.1755,-0.1752,-0.1748,-0.1713,-0.1697,-0.1727,-0.1728,-0.173,-0.1685,-0.167,-0.1665,-0.161,-0.1649,-0.1646,-0.1644,-0.1643,-0.1669,-0.1671,0,0,0,0,0,0,-0.1795,-0.1781,-0.1741,-0.1739,-0.1776,-0.175,-0.1746,-0.1733,-0.1698,-0.1695,-0.1729,-0.173,-0.1675,-0.1669,-0.1663,-0.1752,-0.1646,-0.1642,-0.1641,-0.1666,-0.1669,-0.1672,0,0,0,0,0,0,-0.1796,-0.1791,-0.1743,-0.1763,-0.1758,-0.1749,-0.1734,-0.1732,-0.1742,-0.1701,-0.1697,-0.1745,-0.1675,-0.1668,-0.1673,-0.1744,-0.1641,-0.1638,-0.1663,-0.1667,-0.1671,-0.1837,0,0,0,0,0,0,-0.1798,-0.1791,-0.1784,-0.1764,-0.1757,-0.1749,-0.1733,-0.1731,-0.1742,-0.1743,-0.1712,-0.1707,-0.1676,-0.1679,-0.167,-0.1738,-0.1635,-0.1659,-0.1665,-0.1669,-0.1828,-0.1846,-0.1862,0,0,0,0,0,-0.1799,-0.1789,-0.1784,-0.1779,-0.1747,-0.175,-0.1747,-0.1741,-0.1742,-0.1753,-0.1744,-0.1709,-0.1706,-0.1677,-0.1667,-0.1735,-0.1657,-0.1663,-0.1669,-0.1821,-0.1843,-0.1861,0,0,0,0,0,0,-0.1804,-0.1787,-0.1781,-0.1765,-0.177,-0.1752,-0.1754,-0.1756,-0.1753,-0.1759,-0.1723,-0.1717,-0.1754,-0.1714,-0.1684,-0.1759,-0.1683,-0.1687,-0.1802,-0.1822,-0.1839,-0.1851,-0.1633,0,0,0,0,0,-0.1802,-0.1791,-0.1785,-0.1773,-0.1778,-0.177,-0.177,-0.1775,-0.1771,-0.1772,-0.1763,-0.1757,-0.1764,-0.1769,-0.1755,-0.1779,-0.1754,-0.1823,-0.184,-0.1854,-0.1859,-0.19,-0.1922,-0.1692,-0.1692,-0.1692,0,0,-0.1799,-0.1789,-0.1781,-0.1775,-0.1772,-0.1797,-0.1773,-0.1787,-0.183,-0.1764,-0.1817,-0.1804,-0.178,-0.1825,-0.1839,-0.1806,-0.1906,-0.1862,-0.1875,-0.1871,-0.1909,-0.1931,-0.1951,-0.1696,-0.1695,-0.1695,0,0,-0.1799,-0.1783,-0.1783,-0.1797,-0.1811,-0.1818,-0.1834,-0.1845,-0.1874,-0.1907,-0.1896,-0.1928,-0.1916,-0.1941,-0.1943,-0.2037,-0.1988,-0.2042,-0.2144,-0.2186,-0.2205,-0.2221,-0.2218,-0.2233,-0.2059,-0.2059,-0.2059,0,-0.1802,-0.1808,-0.1787,-0.1807,-0.1843,-0.184,-0.1887,-0.1905,-0.1928,-0.1975,-0.1947,-0.2001,-0.1977,-0.2063,-0.2105,-0.2078,-0.2075,-0.2071,-0.2209,-0.2225,-0.2239,-0.2231,-0.2246,-0.2068,-0.2067,-0.2066,-0.2065,0,-0.1807,-0.1834,-0.1843,-0.1876,-0.1904,-0.1946,-0.1984,-0.2035,-0.2068,-0.2095,-0.2186,-0.2166,-0.22,-0.2219,-0.2184,-0.2297,-0.2252,-0.2221,-0.216,-0.2272,-0.2256,-0.2268,-0.208,-0.2077,-0.2074,-0.2072,0,0,-0.1778,-0.1842,-0.1849,-0.1915,-0.1964,-0.2002,-0.2083,-0.2176,-0.2252,-0.2284,-0.2379,-0.2418,-0.2411,-0.2413,-0.24,-0.2444,-0.2536,-0.2386,-0.2384,-0.2386,-0.2608,-0.2345,-0.2331,-0.254,-0.2543,-0.2545,-0.2557,0,-0.1811,-0.1893,-0.191,-0.2026,-0.2095,-0.2144,-0.2227,-0.2306,-0.236,-0.244,-0.2471,-0.2525,-0.2486,-0.2507,-0.2555,-0.2504,-0.2576,-0.2534,-0.2495,-0.2493,-0.2249,-0.2339,-0.2183,-0.216,-0.2568,-0.2569,-0.2571,0,-0.1812,-0.1896,-0.2009,-0.2166,-0.2197,-0.226,-0.242,-0.2487,-0.2584,-0.2619,-0.2682,-0.2673,-0.2722,-0.2676,-0.2701,-0.2674,-0.2676,-0.2655,-0.2654,-0.2354,-0.2251,-0.2113,-0.2165,-0.259,-0.2588,-0.2587,-0.2585,0,-0.1835,-0.1967,-0.2083,-0.2131,-0.2283,-0.2366,-0.2447,-0.2554,-0.2609,-0.2721,-0.273,-0.2808,-0.2799,-0.2823,-0.2712,-0.274,-0.2702,-0.2731,-0.2525,-0.2505,-0.233,-0.2287,-0.2831,-0.2831,-0.2831,-0.2831,-0.2831,0,-0.187,-0.1972,-0.2112,-0.2188,-0.2339,-0.2422,-0.2551,-0.264,-0.2714,-0.2709,-0.2808,-0.2771,-0.284,-0.2786,-0.2749,-0.2591,-0.2728,-0.2545,-0.2497,-0.2378,-0.2341,-0.2673,-0.2655,-0.2831,-0.2831,-0.2831,-0.2831,0,-0.187,-0.1952,-0.211,-0.23,-0.2348,-0.2457,-0.2567,-0.2606,-0.271,-0.269,-0.2707,-0.2757,-0.266,-0.2663,-0.2654,-0.2581,-0.2495,-0.244,-0.2248,-0.2175,-0.229,-0.2281,-0.2266,-0.2256,-0.2249,-0.2242,-0.2237,0,-0.1885,-0.196,-0.2165,-0.2203,-0.2287,-0.2423,-0.2446,-0.2583,-0.2545,-0.2591,-0.2505,-0.2521,-0.2398,-0.228,-0.2187,-0.2099,-0.2268,-0.1933,-0.1967,-0.2281,-0.2238,-0.224,-0.2241,-0.1831,-0.1822,-0.1816,-0.181,0,-0.1915,-0.1974,-0.2075,-0.2166,-0.2215,-0.2262,-0.2284,-0.2261,-0.2304,-0.2303,-0.2187,-0.2145,-0.2032,-0.1842,-0.1748,-0.1687,-0.1919,-0.1785,-0.22,-0.1945,-0.1856,-0.1817,-0.1837,-0.175,-0.1756,-0.176,-0.1764,-0.1766,-0.1892,-0.1944,-0.2018,-0.2075,-0.2092,-0.2008,-0.198,-0.1943,-0.1891,-0.1793,-0.1811,-0.171,-0.1705,-0.1454,-0.1326,-0.1282,-0.1451,-0.1463,-0.1493,-0.1528,-0.1422,-0.1319,-0.1092,-0.1094,-0.1096,-0.1098,-0.1099,0,-0.1833,-0.1843,-0.189,-0.1894,-0.1788,-0.1887,-0.1766,-0.1679,-0.1526,-0.1488,-0.1412,-0.1234,-0.1088,-0.1107,-0.0922,-0.0861,-0.0963,-0.0854,-0.1026,-0.1082,-0.1133,-0.1017,-0.0576,-0.0575,-0.0573,-0.0572,0,0,-0.178,-0.177,-0.1771,-0.1563,-0.1535,-0.1384,-0.1289,-0.1215,-0.1153,-0.104,-0.1001,-0.1046,-0.1059,-0.0826,-0.0752,-0.0636,-0.0873,-0.0604,-0.1021,-0.128,-0.133,-0.1466,-0.1344,0,0,0,0,0]},{"header":{"parameterUnit":"m.s-1","parameterCategory":2,"la1":30.2991,"la2":30.254,"lo1":-89.0895,"lo2":-89.0444,"dy":0.0017,"dx":0.0017,"nx":28,"ny":28,"refTime":"2023-09-14T21:00:00:Z","depth":"2","parameterNumber":3,"parameterNumberName":"V-component_of_CURRENTS"},"data":[0,0,0,0,0,0,0,0,0,0,0,0,0,0,0,0,0,0,0,0,0,0,0,0,0,0,0,0,0,0,0,0,0,0,0,0,0,0,0,0,0,0,0,0,0,0,0,0,0,0,0,0,0,0,0,0,0,0,-0.0104,-0.0102,0,0.0074,0.0076,0.0079,0.0165,0.0164,0.0164,0.0164,0.0295,0.0299,0.0303,0,0,0,0,0,0,0,0,0,0,0,0,0,-0.0174,-0.0174,-0.0104,-0.0102,-0.01,0.0074,0.0076,0.0079,0.0165,0.0164,0.0164,0.0164,0.0294,0.0299,0.0303,0,0,0,0,0,0,0,0,0,0,0,0,0,-0.0084,-0.0174,-0.0105,-0.0037,-0.003,0.0073,0.0077,0.008,0.0165,0.0164,0.0164,0.0164,0.0293,0.0298,0.0304,0.0343,0,0,0.032,0.0323,0,0,0,0,0,0,0,0,-0.0089,-0.0081,-0.0049,-0.0042,-0.0033,0.0096,0.01,0.0165,0.0165,0.0092,0.0164,0.0164,0.0224,0.0235,0.0271,0.0349,0.0354,0.0321,0.0324,0.0326,0.0328,0,0,0,0,0,0,0,-0.0096,-0.0087,-0.0032,-0.0047,-0.0037,0.0052,0.0062,0.0114,0.0157,0.0098,0.0105,0.0123,0.0228,0.0266,0.0275,0.0356,0.0321,0.0325,0.0329,0.0331,0.0476,0.0477,0,0,0,0,0,0,-0.0131,-0.0095,-0.0038,-0.0027,-0.0064,0.0052,0.0064,0.0056,0.0158,0.0173,0.0123,0.0126,0.0257,0.0268,0.028,0.0331,0.0326,0.0332,0.0335,0.0476,0.0476,0.0477,0,0,0,0,0,0,-0.0133,-0.0129,-0.0045,-0.0056,-0.0039,0.0052,0.0043,0.0059,0.0101,0.0177,0.0191,0.0147,0.0257,0.0272,0.0331,0.0336,0.0334,0.0339,0.0475,0.0476,0.0477,0.0434,0,0,0,0,0,0,-0.0137,-0.0131,-0.0139,-0.0059,-0.004,0.0017,0.0043,0.0063,0.0112,0.0118,0.0202,0.0214,0.0258,0.0322,0.0336,0.0344,0.0343,0.0474,0.0475,0.0476,0.0435,0.0433,0.0432,0,0,0,0,0,-0.014,-0.0156,-0.0141,-0.0133,-0.0059,0.0017,0.0036,0.0103,0.0112,0.0137,0.019,0.0212,0.0338,0.0327,0.0344,0.0353,0.0474,0.0475,0.0476,0.0435,0.0433,0.0432,0,0,0,0,0,0,-0.018,-0.0146,-0.0129,-0.0132,-0.0062,0.0031,0.0062,0.01,0.0165,0.0164,0.0227,0.0244,0.0292,0.0332,0.0318,0.0398,0.0407,0.0411,0.037,0.0369,0.0368,0.035,0.0348,0,0,0,0,0,-0.0198,-0.0207,-0.014,-0.0136,-0.0108,-0.0025,0.0015,0.0058,0.0122,0.0151,0.0207,0.0262,0.0312,0.0346,0.0394,0.0447,0.0477,0.0461,0.046,0.0458,0.0455,0.0524,0.0528,0.0481,0.0481,0.0481,0,0,-0.021,-0.0192,-0.0194,-0.0145,-0.0088,-0.0047,-0.0001,0.0054,0.0086,0.0153,0.0207,0.0257,0.0323,0.0376,0.0402,0.0411,0.0483,0.046,0.0458,0.0456,0.0526,0.053,0.0534,0.0482,0.0482,0.0482,0,0,-0.0226,-0.0224,-0.0225,-0.0177,-0.0107,-0.006,-0.005,0.0038,0.0074,0.0132,0.0182,0.0245,0.0317,0.0381,0.0416,0.044,0.0468,0.0443,0.0433,0.05,0.0504,0.0508,0.0528,0.0535,0.0451,0.045,0.045,0,-0.0234,-0.0242,-0.0204,-0.0179,-0.0152,-0.0075,-0.0055,0.0002,0.0097,0.0126,0.0136,0.0268,0.0323,0.0406,0.0408,0.0439,0.0457,0.0431,0.0497,0.0502,0.0507,0.0527,0.0535,0.0449,0.0449,0.0449,0.0449,0,-0.0245,-0.024,-0.0231,-0.0197,-0.0158,-0.0128,-0.0058,-0.0013,0.0023,0.0082,0.0162,0.0252,0.033,0.0358,0.0387,0.0455,0.0448,0.0479,0.0497,0.0509,0.0529,0.0538,0.0446,0.0446,0.0447,0.0448,0,0,-0.0292,-0.0253,-0.0248,-0.0248,-0.0175,-0.0154,-0.0101,-0.0035,0.0001,0.0086,0.0137,0.0239,0.029,0.0334,0.0398,0.0461,0.0506,0.0472,0.0477,0.0482,0.0611,0.0553,0.0557,0.0542,0.0544,0.0546,0.0601,0,-0.0307,-0.0307,-0.0272,-0.0264,-0.026,-0.0189,-0.0145,-0.0076,-0.0008,0.0062,0.0165,0.0231,0.0281,0.0316,0.039,0.0468,0.053,0.0485,0.0607,0.0609,0.055,0.0567,0.0551,0.0595,0.061,0.0611,0.0612,0,-0.0325,-0.0334,-0.034,-0.0322,-0.0311,-0.029,-0.0231,-0.0184,-0.0057,0.0001,0.0102,0.018,0.0281,0.0321,0.0474,0.0434,0.0515,0.0583,0.0588,0.0557,0.0569,0.0592,0.061,0.0627,0.0626,0.0625,0.0624,0,-0.04,-0.0383,-0.041,-0.04,-0.0352,-0.0344,-0.0321,-0.0208,-0.0169,-0.0046,-0.0014,0.0143,0.0179,0.0328,0.044,0.0461,0.0587,0.0647,0.0681,0.0676,0.0699,0.0692,0.0773,0.0773,0.0773,0.0773,0.0773,0,-0.0441,-0.0458,-0.0455,-0.0466,-0.0499,-0.0435,-0.0418,-0.0357,-0.0249,-0.0217,-0.0072,-0.0028,0.0177,0.027,0.0417,0.0537,0.0572,0.0673,0.0695,0.0678,0.067,0.0734,0.0729,0.0775,0.0774,0.0774,0.0774,0,-0.0501,-0.0487,-0.0532,-0.0529,-0.0532,-0.0567,-0.0523,-0.0486,-0.0395,-0.0353,-0.0331,-0.0179,-0.006,0.0135,0.0347,0.0463,0.0622,0.0664,0.0595,0.0608,0.0679,0.0671,0.0738,0.0736,0.0735,0.0734,0.0733,0,-0.0527,-0.0555,-0.0614,-0.0648,-0.0652,-0.0675,-0.0659,-0.0572,-0.0533,-0.0455,-0.0448,-0.0337,-0.0228,0.0032,0.0271,0.0518,0.0564,0.0618,0.0683,0.0665,0.068,0.0674,0.0668,0.0695,0.0694,0.0693,0.0692,0,-0.0595,-0.062,-0.0671,-0.0748,-0.0775,-0.0786,-0.0777,-0.0768,-0.0669,-0.0627,-0.057,-0.0487,-0.026,0.0001,0.0274,0.0424,0.0583,0.0606,0.0633,0.0685,0.0624,0.0638,0.0635,0.0684,0.0685,0.0686,0.0686,0.0686,-0.0655,-0.0725,-0.0788,-0.0852,-0.0875,-0.0872,-0.0875,-0.0839,-0.0797,-0.0708,-0.0656,-0.0497,-0.0281,0.0138,0.0318,0.0503,0.0542,0.0635,0.064,0.0645,0.0609,0.0547,0.0584,0.0584,0.0585,0.0585,0.0585,0,-0.0736,-0.0795,-0.0872,-0.0932,-0.0934,-0.0932,-0.0914,-0.088,-0.0837,-0.073,-0.0632,-0.039,-0.0115,0.0116,0.0411,0.0568,0.0593,0.0583,0.0617,0.0623,0.0629,0.0594,0.0566,0.0566,0.0566,0.0566,0,0,-0.0782,-0.0881,-0.0916,-0.095,-0.0964,-0.0955,-0.0938,-0.0899,-0.0805,-0.0688,-0.054,-0.0351,-0.0078,0.0124,0.0315,0.0462,0.05,0.0462,0.0465,0.0489,0.0493,0.0647,0.0598,0,0,0,0,0]}],[{"header":{"parameterUnit":"m.s-1","parameterCategory":2,"la1":30.2991,"la2":30.254,"lo1":-89.0895,"lo2":-89.0444,"dy":0.0017,"dx":0.0017,"nx":28,"ny":28,"refTime":"2023-09-14T21:00:00:Z","depth":"4","parameterNumber":2,"parameterNumberName":"U-component_of_CURRENTS"},"data":[0,0,0,0,0,0,0,0,0,0,0,0,0,0,0,0,0,0,0,0,0,0,0,0,0,0,0,0,0,0,0,0,0,0,0,0,0,0,0,0,0,0,0,0,0,0,0,0,0,0,0,0,0,0,0,0,0,0,-0.0757,-0.0758,0,-0.0789,-0.0789,-0.0789,-0.0804,-0.0805,-0.0805,-0.0805,-0.086,-0.0861,-0.0862,0,0,0,0,0,0,0,0,0,0,0,0,0,-0.0694,-0.0695,-0.0757,-0.0758,-0.0758,-0.0789,-0.0789,-0.0789,-0.0804,-0.0805,-0.0805,-0.0805,-0.0859,-0.0861,-0.0862,0,0,0,0,0,0,0,0,0,0,0,0,0,-0.072,-0.0695,-0.0757,-0.0772,-0.0774,-0.0789,-0.0789,-0.0789,-0.0804,-0.0805,-0.0805,-0.0806,-0.0859,-0.0861,-0.0863,-0.0865,0,0,-0.0868,-0.0869,0,0,0,0,0,0,0,0,-0.0719,-0.0722,-0.0769,-0.0771,-0.0773,-0.0796,-0.0787,-0.0817,-0.0804,-0.0789,-0.0805,-0.0806,-0.0842,-0.0846,-0.0846,-0.0868,-0.087,-0.0868,-0.0869,-0.087,-0.0871,0,0,0,0,0,0,0,-0.0717,-0.0721,-0.0766,-0.077,-0.0772,-0.0773,-0.0776,-0.0793,-0.0811,-0.0791,-0.0793,-0.0801,-0.0843,-0.0844,-0.0847,-0.0871,-0.0868,-0.087,-0.0871,-0.0872,-0.0963,-0.0964,0,0,0,0,0,0,-0.072,-0.0719,-0.0766,-0.0768,-0.075,-0.0774,-0.0778,-0.0786,-0.0811,-0.0815,-0.0801,-0.0802,-0.0841,-0.0845,-0.0849,-0.091,-0.087,-0.0872,-0.0873,-0.0961,-0.0963,-0.0964,0,0,0,0,0,0,-0.0719,-0.0724,-0.0764,-0.0747,-0.0752,-0.0775,-0.0783,-0.0786,-0.0803,-0.0819,-0.0823,-0.0817,-0.0841,-0.0847,-0.0876,-0.0911,-0.0872,-0.0874,-0.096,-0.0962,-0.0964,-0.0997,0,0,0,0,0,0,-0.0717,-0.0723,-0.0735,-0.0747,-0.0754,-0.0782,-0.0783,-0.0787,-0.0808,-0.081,-0.0834,-0.0838,-0.0842,-0.0873,-0.0878,-0.0912,-0.0876,-0.0958,-0.0961,-0.0963,-0.0994,-0.1,-0.1004,0,0,0,0,0,-0.0714,-0.0728,-0.0735,-0.0742,-0.0768,-0.0783,-0.0786,-0.0801,-0.0809,-0.0817,-0.0834,-0.0838,-0.0893,-0.0875,-0.088,-0.0916,-0.0957,-0.096,-0.0963,-0.0992,-0.0999,-0.1004,0,0,0,0,0,0,-0.0709,-0.0731,-0.074,-0.0761,-0.0776,-0.0787,-0.08,-0.081,-0.0829,-0.0835,-0.0847,-0.0853,-0.0899,-0.0899,-0.0879,-0.0951,-0.0929,-0.0934,-0.095,-0.0956,-0.0961,-0.0953,-0.0877,0,0,0,0,0,-0.0713,-0.0729,-0.0748,-0.0766,-0.0774,-0.079,-0.0801,-0.081,-0.0827,-0.0836,-0.0857,-0.0882,-0.0912,-0.0926,-0.095,-0.0979,-0.098,-0.1009,-0.1015,-0.1019,-0.1017,-0.1056,-0.1065,-0.0974,-0.0974,-0.0974,0,0,-0.0714,-0.0732,-0.074,-0.0766,-0.0778,-0.0792,-0.0797,-0.0817,-0.0835,-0.084,-0.0878,-0.0905,-0.0926,-0.0966,-0.0986,-0.097,-0.1043,-0.1023,-0.1026,-0.1022,-0.106,-0.1069,-0.1077,-0.0976,-0.0976,-0.0976,0,0,-0.0718,-0.0741,-0.0752,-0.0761,-0.0786,-0.0803,-0.0814,-0.0837,-0.0855,-0.0889,-0.0907,-0.0944,-0.0988,-0.1006,-0.1021,-0.1068,-0.1075,-0.1092,-0.1107,-0.1145,-0.1153,-0.116,-0.1158,-0.1164,-0.1088,-0.1088,-0.1089,0,-0.0725,-0.0737,-0.0757,-0.0765,-0.0784,-0.0811,-0.0827,-0.0845,-0.0878,-0.0903,-0.0908,-0.0993,-0.1004,-0.1057,-0.1072,-0.108,-0.1095,-0.1079,-0.1152,-0.1158,-0.1165,-0.1161,-0.1168,-0.109,-0.109,-0.109,-0.109,0,-0.0725,-0.0739,-0.0747,-0.0773,-0.0797,-0.0814,-0.0846,-0.0867,-0.0903,-0.0937,-0.1007,-0.1031,-0.108,-0.1098,-0.1096,-0.1158,-0.1151,-0.1159,-0.1132,-0.1175,-0.1169,-0.1175,-0.1093,-0.1093,-0.1092,-0.1091,0,0,-0.0729,-0.0747,-0.0749,-0.0756,-0.0804,-0.0817,-0.0855,-0.0904,-0.0936,-0.0987,-0.1049,-0.1095,-0.1129,-0.1148,-0.1167,-0.1192,-0.1235,-0.1195,-0.1196,-0.1186,-0.1305,-0.1225,-0.1224,-0.1269,-0.1271,-0.1272,-0.1278,0,-0.0728,-0.0736,-0.0762,-0.0782,-0.079,-0.0827,-0.086,-0.0907,-0.0968,-0.1033,-0.1084,-0.1155,-0.1146,-0.1183,-0.121,-0.1246,-0.1256,-0.1231,-0.1271,-0.127,-0.119,-0.123,-0.1277,-0.1282,-0.1284,-0.1285,-0.1285,0,-0.0716,-0.0726,-0.0743,-0.0775,-0.0786,-0.0812,-0.0878,-0.0916,-0.1008,-0.1053,-0.1137,-0.12,-0.1261,-0.1249,-0.1308,-0.1302,-0.1299,-0.1309,-0.131,-0.1227,-0.1203,-0.1235,-0.1296,-0.1295,-0.1294,-0.1294,-0.1293,0,-0.0686,-0.0713,-0.073,-0.0736,-0.0779,-0.0801,-0.0845,-0.0927,-0.0973,-0.1089,-0.1154,-0.124,-0.1301,-0.1329,-0.1354,-0.1345,-0.1413,-0.1398,-0.1313,-0.1306,-0.136,-0.1353,-0.1423,-0.1423,-0.1423,-0.1423,-0.1423,0,-0.0664,-0.0673,-0.071,-0.0705,-0.0722,-0.0784,-0.0829,-0.0876,-0.0988,-0.1079,-0.1175,-0.1263,-0.1332,-0.1392,-0.1385,-0.137,-0.1435,-0.1316,-0.1311,-0.1371,-0.1366,-0.1363,-0.1356,-0.1423,-0.1423,-0.1423,-0.1423,0,-0.0617,-0.0641,-0.0643,-0.0686,-0.0696,-0.0714,-0.0793,-0.0836,-0.0953,-0.1081,-0.1132,-0.1288,-0.1365,-0.1403,-0.1452,-0.14,-0.1396,-0.1366,-0.1415,-0.1413,-0.1247,-0.1242,-0.1263,-0.1261,-0.1258,-0.1257,-0.1255,0,-0.0594,-0.0587,-0.0605,-0.0596,-0.0614,-0.0646,-0.067,-0.0787,-0.0869,-0.1101,-0.1176,-0.1308,-0.1393,-0.1389,-0.1422,-0.1384,-0.1361,-0.1331,-0.1289,-0.1242,-0.1235,-0.1233,-0.1231,-0.1252,-0.1251,-0.125,-0.125,0,-0.0543,-0.0549,-0.0547,-0.0521,-0.0536,-0.0562,-0.0642,-0.0696,-0.0886,-0.0995,-0.1188,-0.1259,-0.134,-0.1361,-0.1334,-0.1313,-0.1342,-0.1307,-0.1311,-0.1271,-0.1228,-0.1223,-0.1223,-0.1242,-0.1243,-0.1244,-0.1244,0,-0.0505,-0.0483,-0.047,-0.0446,-0.0463,-0.0514,-0.055,-0.0676,-0.0771,-0.1055,-0.1114,-0.1262,-0.1366,-0.1326,-0.1322,-0.1277,-0.1239,-0.1177,-0.1186,-0.1195,-0.1166,-0.1101,-0.1075,0,0,0,0,0,-0.0468,-0.043,-0.0396,-0.0382,-0.0406,-0.0433,-0.0553,-0.0621,-0.0817,-0.0924,-0.1025,-0.1111,-0.1162,-0.1219,-0.1148,-0.1239,-0.1207,-0.1149,-0.1132,-0.12,-0.1209,-0.1179,0,0,0,0,0,0,-0.0438,-0.0406,-0.0375,-0.0346,-0.0339,-0.0389,-0.0478,-0.0609,-0.068,-0.0872,-0.0892,-0.1016,-0.1049,-0.1173,-0.1118,-0.1124,-0.1084,-0.121,-0.1206,-0.1195,-0.1203,-0.121,-0.1182,0,0,0,0,0]},{"header":{"parameterUnit":"m.s-1","parameterCategory":2,"la1":30.2991,"la2":30.254,"lo1":-89.0895,"lo2":-89.0444,"dy":0.0017,"dx":0.0017,"nx":28,"ny":28,"refTime":"2023-09-14T21:00:00:Z","depth":"4","parameterNumber":3,"parameterNumberName":"V-component_of_CURRENTS"},"data":[0,0,0,0,0,0,0,0,0,0,0,0,0,0,0,0,0,0,0,0,0,0,0,0,0,0,0,0,0,0,0,0,0,0,0,0,0,0,0,0,0,0,0,0,0,0,0,0,0,0,0,0,0,0,0,0,0,0,-0.0199,-0.0198,0,-0.0159,-0.0159,-0.0159,-0.0123,-0.0122,-0.0122,-0.0121,-0.0067,-0.0066,-0.0065,0,0,0,0,0,0,0,0,0,0,0,0,0,-0.0253,-0.0252,-0.0199,-0.0198,-0.0198,-0.0159,-0.0159,-0.0159,-0.0123,-0.0122,-0.0121,-0.0121,-0.0067,-0.0066,-0.0065,0,0,0,0,0,0,0,0,0,0,0,0,0,-0.0224,-0.0252,-0.0199,-0.0174,-0.0172,-0.016,-0.0159,-0.0158,-0.0123,-0.0122,-0.0121,-0.0121,-0.0067,-0.0066,-0.0065,-0.0072,0,0,-0.006,-0.006,0,0,0,0,0,0,0,0,-0.0226,-0.0222,-0.0178,-0.0176,-0.0173,-0.0144,-0.0158,-0.0128,-0.0123,-0.0143,-0.0121,-0.012,-0.0091,-0.0088,-0.0084,-0.0069,-0.0067,-0.006,-0.0059,-0.0059,-0.0058,0,0,0,0,0,0,0,-0.0228,-0.0224,-0.0184,-0.0178,-0.0175,-0.0169,-0.0164,-0.0153,-0.0122,-0.0141,-0.0138,-0.0132,-0.009,-0.0085,-0.0082,-0.0066,-0.006,-0.0059,-0.0058,-0.0057,-0.0045,-0.0045,0,0,0,0,0,0,-0.0231,-0.0226,-0.0185,-0.0183,-0.0197,-0.0168,-0.0163,-0.0155,-0.0123,-0.0117,-0.0133,-0.013,-0.0088,-0.0084,-0.008,-0.0084,-0.0059,-0.0057,-0.0057,-0.0044,-0.0045,-0.0046,0,0,0,0,0,0,-0.0232,-0.0228,-0.0187,-0.0203,-0.0197,-0.0168,-0.016,-0.0155,-0.0147,-0.0117,-0.011,-0.013,-0.0087,-0.0082,-0.0076,-0.0081,-0.0057,-0.0055,-0.0044,-0.0045,-0.0045,-0.0093,0,0,0,0,0,0,-0.0234,-0.0228,-0.0228,-0.0203,-0.0196,-0.0187,-0.016,-0.0154,-0.0145,-0.0141,-0.0112,-0.0107,-0.0086,-0.0078,-0.0074,-0.0079,-0.0054,-0.0043,-0.0044,-0.0045,-0.009,-0.0095,-0.0099,0,0,0,0,0,-0.0236,-0.0235,-0.0228,-0.0223,-0.0195,-0.0187,-0.0184,-0.0161,-0.0145,-0.015,-0.013,-0.0107,-0.0081,-0.0078,-0.0073,-0.0077,-0.0043,-0.0044,-0.0045,-0.0088,-0.0094,-0.0099,0,0,0,0,0,0,-0.0255,-0.023,-0.0222,-0.0213,-0.0206,-0.0181,-0.0179,-0.0165,-0.0153,-0.0149,-0.0117,-0.0111,-0.0104,-0.0089,-0.0085,-0.0077,-0.0057,-0.0057,-0.0091,-0.0096,-0.01,-0.0108,-0.0053,0,0,0,0,0,-0.0261,-0.0255,-0.0235,-0.023,-0.0226,-0.0206,-0.0199,-0.0187,-0.0171,-0.0164,-0.0145,-0.0124,-0.0107,-0.01,-0.0085,-0.0085,-0.0045,-0.0084,-0.0088,-0.0092,-0.0095,-0.0028,-0.0026,-0.005,-0.005,-0.0049,0,0,-0.0268,-0.0253,-0.025,-0.0235,-0.0225,-0.0233,-0.02,-0.0196,-0.0205,-0.0161,-0.0167,-0.0138,-0.011,-0.0108,-0.0103,-0.0095,-0.0066,-0.0093,-0.0097,-0.0098,-0.0029,-0.0026,-0.0024,-0.005,-0.005,-0.005,0,0,-0.0282,-0.0266,-0.027,-0.0271,-0.0261,-0.0252,-0.0253,-0.0236,-0.023,-0.0234,-0.0198,-0.0176,-0.0161,-0.0138,-0.0124,-0.0144,-0.0089,-0.0137,-0.0166,-0.0101,-0.0098,-0.0095,-0.0049,-0.0041,-0.0141,-0.0142,-0.0142,0,-0.0293,-0.0295,-0.0273,-0.0283,-0.0292,-0.0264,-0.0285,-0.0278,-0.0262,-0.0258,-0.0244,-0.0196,-0.0176,-0.0155,-0.0164,-0.0153,-0.0109,-0.015,-0.0105,-0.0101,-0.0097,-0.005,-0.0041,-0.0144,-0.0144,-0.0143,-0.0143,0,-0.0314,-0.0324,-0.0327,-0.0335,-0.0344,-0.0355,-0.0348,-0.0352,-0.0339,-0.0321,-0.0297,-0.0257,-0.0225,-0.0215,-0.0199,-0.0163,-0.0139,-0.0115,-0.0091,-0.0098,-0.0048,-0.0038,-0.0147,-0.0147,-0.0146,-0.0145,0,0,-0.0318,-0.0339,-0.0343,-0.0368,-0.0375,-0.0387,-0.0407,-0.0411,-0.0414,-0.0383,-0.0367,-0.0336,-0.029,-0.0272,-0.0231,-0.0183,-0.0125,-0.0144,-0.014,-0.0096,0.0015,0.0001,0.0012,-0.0082,-0.0081,-0.0079,0.0035,0,-0.0345,-0.0383,-0.0386,-0.0438,-0.0462,-0.0462,-0.0482,-0.0482,-0.0467,-0.0443,-0.0379,-0.0344,-0.0317,-0.0289,-0.0238,-0.0144,-0.0099,-0.0159,0.0013,0.0017,0.0009,0.0023,-0.0074,0.0043,0.0045,0.0047,0.0049,0,-0.0364,-0.0392,-0.0445,-0.0497,-0.0507,-0.0537,-0.0567,-0.0578,-0.0538,-0.0516,-0.046,-0.0395,-0.0318,-0.0287,-0.0138,-0.0172,-0.0092,-0.0022,-0.0015,-0.0003,0.0023,0.0054,0.0068,0.0066,0.0065,0.0064,0.0063,0,-0.0381,-0.0436,-0.0484,-0.0503,-0.0549,-0.0582,-0.0605,-0.06,-0.0598,-0.0547,-0.0511,-0.0416,-0.0346,-0.023,-0.0097,-0.0105,0.0078,0.009,0.015,0.015,0.015,0.0145,0.0193,0.0193,0.0193,0.0192,0.0192,0,-0.0404,-0.0446,-0.0502,-0.053,-0.0593,-0.0616,-0.0657,-0.0664,-0.0635,-0.0613,-0.0538,-0.0481,-0.0323,-0.02,-0.009,0.0062,0.0088,0.0148,0.0183,0.0124,0.0116,0.0157,0.0151,0.0197,0.0196,0.0195,0.0194,0,-0.0412,-0.0443,-0.0509,-0.0577,-0.0603,-0.0649,-0.0694,-0.0702,-0.0681,-0.0641,-0.0613,-0.0501,-0.0349,-0.0196,-0.0,0.0072,0.0216,0.026,0.0177,0.0205,0.0241,0.0231,0.0341,0.0342,0.0342,0.0343,0.0343,0,-0.042,-0.045,-0.0541,-0.058,-0.0618,-0.0681,-0.0706,-0.072,-0.0712,-0.0651,-0.0611,-0.0475,-0.0385,-0.0115,0.0022,0.0233,0.0252,0.0317,0.0278,0.0235,0.0259,0.0248,0.0238,0.0344,0.0344,0.0344,0.0344,0,-0.0437,-0.0467,-0.0518,-0.0593,-0.0646,-0.0695,-0.0733,-0.0728,-0.0715,-0.069,-0.0586,-0.0458,-0.0292,-0.0112,0.0051,0.0196,0.0272,0.0323,0.0322,0.0286,0.024,0.026,0.025,0.0346,0.0346,0.0346,0.0345,0,-0.0446,-0.0481,-0.0539,-0.0606,-0.0661,-0.069,-0.0721,-0.0702,-0.0691,-0.062,-0.0589,-0.0427,-0.0336,-0.013,0.002,0.0162,0.0187,0.0217,0.0223,0.0222,0.0143,0.0064,0.0152,0,0,0,0,0,-0.0452,-0.0484,-0.0544,-0.0613,-0.0659,-0.069,-0.0718,-0.0729,-0.0716,-0.0637,-0.0613,-0.0461,-0.0244,-0.0153,-0.001,0.0018,0.0202,0.0186,0.0237,0.0355,0.0353,0.0278,0,0,0,0,0,0,-0.0457,-0.0507,-0.0538,-0.0594,-0.063,-0.0675,-0.0694,-0.0692,-0.0645,-0.0615,-0.0492,-0.0438,-0.0219,-0.0315,-0.0008,0.0031,0.0078,0.0288,0.029,0.0357,0.0355,0.0353,0.0275,0,0,0,0,0]}]]